Wetterdaten: Mittwoch, 20.05.2015
Datum Zeit Auen-Temp. Temp gefhlt Luftfeuchte Luftdruck Regen Wind Richtung Richtung Taupunkt Windben
20.05.2015 00:00 8,2 C 8,0 C 89 % 1011,9 hPa 0,0 mm 0,5 km/h (0 Bft) W-SW 247 6,5 C 0,0 km/h (0 Bft)
20.05.2015 00:05 8,1 C 8,0 C 87 % 1011,9 hPa 0,0 mm 0,0 km/h (0 Bft) S-SO 157 6,1 C 0,0 km/h (0 Bft)
20.05.2015 00:10 8,0 C 7,9 C 89 % 1011,9 hPa 0,0 mm 0,3 km/h (0 Bft) N-NW 337 6,3 C 7,3 km/h (2 Bft)
20.05.2015 00:15 8,0 C 7,9 C 89 % 1011,9 hPa 0,0 mm 0,5 km/h (0 Bft) S 180 6,3 C 2,8 km/h (1 Bft)
20.05.2015 00:20 7,9 C 7,7 C 89 % 1011,9 hPa 0,7 mm 0,5 km/h (0 Bft) SW 225 6,2 C 0,0 km/h (0 Bft)
20.05.2015 00:25 7,9 C 7,7 C 89 % 1011,9 hPa 0,0 mm 0,3 km/h (0 Bft) SW 225 6,2 C 0,0 km/h (0 Bft)
20.05.2015 00:30 7,8 C 7,6 C 89 % 1011,9 hPa 0,0 mm 0,3 km/h (0 Bft) SW 225 6,1 C 2,6 km/h (1 Bft)
20.05.2015 00:35 7,8 C 7,6 C 89 % 1012,0 hPa 0,0 mm 0,8 km/h (0 Bft) S-SW 202 6,1 C 0,0 km/h (0 Bft)
20.05.2015 00:40 7,7 C 7,6 C 87 % 1012,0 hPa 0,0 mm 1,6 km/h (1 Bft) S-SW 202 5,7 C 5,2 km/h (1 Bft)
20.05.2015 00:45 7,7 C 7,6 C 89 % 1012,0 hPa 0,0 mm 1,8 km/h (1 Bft) S 180 6,0 C 3,6 km/h (1 Bft)
20.05.2015 00:50 7,7 C 7,5 C 89 % 1012,0 hPa 0,0 mm 1,8 km/h (1 Bft) W-SW 247 6,0 C 0,0 km/h (0 Bft)
20.05.2015 00:55 7,7 C 7,5 C 89 % 1012,0 hPa 0,0 mm 1,3 km/h (1 Bft) W-SW 247 6,0 C 2,8 km/h (1 Bft)
20.05.2015 01:00 7,6 C 7,4 C 89 % 1012,0 hPa 0,7 mm 0,5 km/h (0 Bft) W-SW 247 5,9 C 0,0 km/h (0 Bft)
20.05.2015 01:05 7,6 C 7,4 C 89 % 1012,0 hPa 0,0 mm 0,5 km/h (0 Bft) SW 225 5,9 C 3,1 km/h (1 Bft)
20.05.2015 01:10 7,5 C 7,4 C 89 % 1012,0 hPa 0,0 mm 0,3 km/h (0 Bft) S 180 5,8 C 0,0 km/h (0 Bft)
20.05.2015 01:15 7,5 C 7,3 C 89 % 1011,9 hPa 0,0 mm 1,8 km/h (1 Bft) W-SW 247 5,8 C 4,9 km/h (1 Bft)
20.05.2015 01:20 7,5 C 7,3 C 89 % 1011,9 hPa 0,0 mm 2,8 km/h (1 Bft) W-SW 247 5,8 C 4,4 km/h (1 Bft)
20.05.2015 01:25 7,5 C 7,3 C 89 % 1011,9 hPa 0,0 mm 2,3 km/h (1 Bft) SW 225 5,8 C 7,8 km/h (2 Bft)
20.05.2015 01:30 7,5 C 7,3 C 89 % 1011,9 hPa 0,0 mm 2,3 km/h (1 Bft) S 180 5,8 C 4,9 km/h (1 Bft)
20.05.2015 01:35 7,5 C 7,3 C 89 % 1011,9 hPa 0,7 mm 2,3 km/h (1 Bft) SW 225 5,8 C 8,5 km/h (2 Bft)
20.05.2015 01:40 7,5 C 7,3 C 89 % 1011,9 hPa 0,0 mm 2,1 km/h (1 Bft) W 270 5,8 C 3,4 km/h (1 Bft)
20.05.2015 01:45 7,4 C 7,3 C 89 % 1011,9 hPa 0,0 mm 2,1 km/h (1 Bft) SW 225 5,7 C 0,0 km/h (0 Bft)
20.05.2015 01:50 7,5 C 7,3 C 89 % 1011,9 hPa 0,0 mm 0,8 km/h (0 Bft) S-SO 157 5,8 C 0,0 km/h (0 Bft)
20.05.2015 01:55 7,4 C 7,3 C 89 % 1011,8 hPa 0,0 mm 1,3 km/h (1 Bft) S 180 5,7 C 6,7 km/h (2 Bft)
20.05.2015 02:00 7,4 C 7,3 C 89 % 1011,8 hPa 0,0 mm 1,3 km/h (1 Bft) SW 225 5,7 C 0,0 km/h (0 Bft)
20.05.2015 02:05 7,4 C 7,3 C 90 % 1011,8 hPa 0,7 mm 0,8 km/h (0 Bft) S-SW 202 5,9 C 9,1 km/h (2 Bft)
20.05.2015 02:10 7,4 C 7,3 C 90 % 1011,8 hPa 0,0 mm 0,0 km/h (0 Bft) S-SW 202 5,9 C 3,9 km/h (1 Bft)
20.05.2015 02:15 7,4 C 7,3 C 90 % 1011,6 hPa 0,0 mm 0,5 km/h (0 Bft) NW 315 5,9 C 2,6 km/h (1 Bft)
20.05.2015 02:20 7,4 C 7,3 C 90 % 1011,6 hPa 0,0 mm 1,3 km/h (1 Bft) W-SW 247 5,9 C 3,1 km/h (1 Bft)
20.05.2015 02:25 7,4 C 7,3 C 90 % 1011,6 hPa 0,7 mm 0,8 km/h (0 Bft) W-SW 247 5,9 C 0,0 km/h (0 Bft)
20.05.2015 02:30 7,4 C 7,3 C 90 % 1011,6 hPa 0,0 mm 0,5 km/h (0 Bft) S 180 5,9 C 0,0 km/h (0 Bft)
20.05.2015 02:35 7,4 C 7,3 C 90 % 1011,8 hPa 0,0 mm 0,3 km/h (0 Bft) W 270 5,9 C 0,0 km/h (0 Bft)
20.05.2015 02:40 7,3 C 7,2 C 90 % 1011,8 hPa 0,0 mm 1,0 km/h (0 Bft) W 270 5,8 C 0,0 km/h (0 Bft)
20.05.2015 02:45 7,2 C 7,1 C 90 % 1011,8 hPa 0,0 mm 1,0 km/h (0 Bft) W 270 5,7 C 0,0 km/h (0 Bft)
20.05.2015 02:50 7,2 C 7,0 C 90 % 1011,8 hPa 0,7 mm 1,6 km/h (1 Bft) S-SW 202 5,7 C 4,7 km/h (1 Bft)
20.05.2015 02:55 7,1 C 7,0 C 90 % 1011,6 hPa 0,0 mm 1,8 km/h (1 Bft) SW 225 5,6 C 0,0 km/h (0 Bft)
20.05.2015 03:00 7,1 C 7,0 C 90 % 1011,6 hPa 0,0 mm 1,3 km/h (1 Bft) SW 225 5,6 C 4,4 km/h (1 Bft)
20.05.2015 03:05 7,1 C 7,0 C 90 % 1011,6 hPa 0,0 mm 1,3 km/h (1 Bft) SO 135 5,6 C 0,0 km/h (0 Bft)
20.05.2015 03:10 7,1 C 7,0 C 90 % 1011,6 hPa 0,0 mm 0,8 km/h (0 Bft) W 270 5,6 C 0,0 km/h (0 Bft)
20.05.2015 03:15 7,0 C 6,9 C 90 % 1011,5 hPa 0,7 mm 0,3 km/h (0 Bft) S-SW 202 5,5 C 0,0 km/h (0 Bft)
20.05.2015 03:20 7,0 C 6,9 C 90 % 1011,5 hPa 0,0 mm 1,3 km/h (1 Bft) SW 225 5,5 C 4,7 km/h (1 Bft)
20.05.2015 03:25 7,0 C 6,9 C 90 % 1011,5 hPa 0,0 mm 1,8 km/h (1 Bft) SW 225 5,5 C 0,0 km/h (0 Bft)
20.05.2015 03:30 7,0 C 6,9 C 90 % 1011,5 hPa 0,7 mm 1,0 km/h (0 Bft) SW 225 5,5 C 0,0 km/h (0 Bft)
20.05.2015 03:35 7,0 C 6,9 C 90 % 1011,4 hPa 0,0 mm 0,3 km/h (0 Bft) S 180 5,5 C 0,0 km/h (0 Bft)
20.05.2015 03:40 7,0 C 6,9 C 90 % 1011,4 hPa 0,0 mm 0,5 km/h (0 Bft) S-SW 202 5,5 C 0,0 km/h (0 Bft)
20.05.2015 03:45 6,9 C 6,8 C 90 % 1011,4 hPa 0,0 mm 0,5 km/h (0 Bft) S-SW 202 5,4 C 0,0 km/h (0 Bft)
20.05.2015 03:50 6,9 C 6,8 C 90 % 1011,4 hPa 0,0 mm 0,3 km/h (0 Bft) SW 225 5,4 C 0,0 km/h (0 Bft)
20.05.2015 03:55 6,9 C 6,8 C 90 % 1011,2 hPa 0,7 mm 0,3 km/h (0 Bft) S 180 5,4 C 0,0 km/h (0 Bft)
20.05.2015 04:00 6,9 C 6,8 C 90 % 1011,2 hPa 0,0 mm 0,0 km/h (0 Bft) S 180 5,4 C 0,0 km/h (0 Bft)
20.05.2015 04:05 6,9 C 6,8 C 90 % 1011,2 hPa 0,0 mm 0,3 km/h (0 Bft) SW 225 5,4 C 0,0 km/h (0 Bft)
20.05.2015 04:10 6,9 C 6,8 C 90 % 1011,2 hPa 0,0 mm 0,5 km/h (0 Bft) S 180 5,4 C 0,0 km/h (0 Bft)
20.05.2015 04:15 6,9 C 6,8 C 90 % 1011,0 hPa 0,0 mm 0,3 km/h (0 Bft) SW 225 5,4 C 0,0 km/h (0 Bft)
20.05.2015 04:20 6,9 C 6,8 C 90 % 1011,0 hPa 0,7 mm 0,3 km/h (0 Bft) SW 225 5,4 C 0,0 km/h (0 Bft)
20.05.2015 04:25 6,9 C 6,8 C 90 % 1011,0 hPa 0,0 mm 0,3 km/h (0 Bft) W-SW 247 5,4 C 0,0 km/h (0 Bft)
20.05.2015 04:30 6,9 C 6,8 C 90 % 1011,0 hPa 0,0 mm 0,5 km/h (0 Bft) O-NO 67 5,4 C 3,1 km/h (1 Bft)
20.05.2015 04:35 6,9 C 6,8 C 90 % 1011,1 hPa 0,7 mm 0,8 km/h (0 Bft) S 180 5,4 C 0,0 km/h (0 Bft)
20.05.2015 04:40 6,9 C 6,8 C 90 % 1011,1 hPa 0,0 mm 0,8 km/h (0 Bft) SW 225 5,4 C 0,0 km/h (0 Bft)
20.05.2015 04:45 6,9 C 6,8 C 90 % 1011,1 hPa 0,0 mm 0,8 km/h (0 Bft) W-SW 247 5,4 C 2,6 km/h (1 Bft)
20.05.2015 04:50 6,9 C 6,8 C 90 % 1011,1 hPa 0,0 mm 1,3 km/h (1 Bft) W-SW 247 5,4 C 0,0 km/h (0 Bft)
20.05.2015 04:55 6,9 C 6,8 C 90 % 1011,0 hPa 0,7 mm 1,0 km/h (0 Bft) SW 225 5,4 C 0,0 km/h (0 Bft)
20.05.2015 05:00 6,9 C 6,8 C 90 % 1011,0 hPa 0,0 mm 1,6 km/h (1 Bft) SW 225 5,4 C 0,0 km/h (0 Bft)
20.05.2015 05:05 6,8 C 6,7 C 90 % 1011,0 hPa 0,7 mm 2,1 km/h (1 Bft) W-SW 247 5,3 C 3,9 km/h (1 Bft)
20.05.2015 05:10 6,8 C 6,7 C 90 % 1011,0 hPa 0,0 mm 2,3 km/h (1 Bft) W 270 5,3 C 4,9 km/h (1 Bft)
20.05.2015 05:15 6,8 C 6,7 C 90 % 1011,0 hPa 0,7 mm 2,3 km/h (1 Bft) SW 225 5,3 C 3,4 km/h (1 Bft)
20.05.2015 05:20 6,8 C 6,7 C 90 % 1011,0 hPa 0,0 mm 2,6 km/h (1 Bft) S-SO 157 5,3 C 0,0 km/h (0 Bft)
20.05.2015 05:25 6,8 C 6,7 C 90 % 1011,0 hPa 0,0 mm 2,6 km/h (1 Bft) S 180 5,3 C 10,6 km/h (2 Bft)
20.05.2015 05:30 6,7 C 6,6 C 90 % 1011,0 hPa 0,7 mm 1,6 km/h (1 Bft) W-SW 247 5,2 C 6,2 km/h (2 Bft)
20.05.2015 05:35 6,7 C 6,6 C 90 % 1011,4 hPa 0,0 mm 1,6 km/h (1 Bft) SW 225 5,2 C 4,4 km/h (1 Bft)
20.05.2015 05:40 6,7 C 6,6 C 90 % 1011,4 hPa 0,7 mm 1,0 km/h (0 Bft) S 180 5,2 C 0,0 km/h (0 Bft)
20.05.2015 05:45 6,7 C 6,6 C 90 % 1011,4 hPa 0,0 mm 1,3 km/h (1 Bft) W-SW 247 5,2 C 2,6 km/h (1 Bft)
20.05.2015 05:50 6,6 C 6,5 C 90 % 1011,4 hPa 0,0 mm 1,8 km/h (1 Bft) W-SW 247 5,1 C 2,8 km/h (1 Bft)
20.05.2015 05:55 6,6 C 6,5 C 90 % 1011,5 hPa 0,0 mm 1,8 km/h (1 Bft) S-SW 202 5,1 C 0,0 km/h (0 Bft)
20.05.2015 06:00 6,6 C 6,5 C 90 % 1011,5 hPa 0,7 mm 1,3 km/h (1 Bft) S-SO 157 5,1 C 5,4 km/h (1 Bft)
20.05.2015 06:05 6,6 C 6,5 C 90 % 1011,5 hPa 0,0 mm 0,8 km/h (0 Bft) W 270 5,1 C 0,0 km/h (0 Bft)
20.05.2015 06:10 6,6 C 6,5 C 90 % 1011,5 hPa 0,0 mm 0,5 km/h (0 Bft) W-SW 247 5,1 C 0,0 km/h (0 Bft)
20.05.2015 06:15 6,5 C 6,4 C 90 % 1011,6 hPa 0,7 mm 0,5 km/h (0 Bft) SW 225 5,0 C 3,9 km/h (1 Bft)
20.05.2015 06:20 6,5 C 6,4 C 90 % 1011,6 hPa 0,0 mm 1,6 km/h (1 Bft) S-SW 202 5,0 C 4,9 km/h (1 Bft)
20.05.2015 06:25 6,4 C 6,3 C 90 % 1011,6 hPa 0,0 mm 2,6 km/h (1 Bft) S 180 4,9 C 4,4 km/h (1 Bft)
20.05.2015 06:30 6,4 C 6,3 C 90 % 1011,6 hPa 0,7 mm 2,1 km/h (1 Bft) SW 225 4,9 C 0,0 km/h (0 Bft)
20.05.2015 06:35 6,3 C 6,2 C 90 % 1011,9 hPa 0,0 mm 0,8 km/h (0 Bft) S-SW 202 4,8 C 0,0 km/h (0 Bft)
20.05.2015 06:40 6,3 C 6,2 C 90 % 1011,9 hPa 0,7 mm 0,8 km/h (0 Bft) SW 225 4,8 C 0,0 km/h (0 Bft)
20.05.2015 06:45 6,2 C 6,1 C 90 % 1011,9 hPa 0,7 mm 1,6 km/h (1 Bft) S-SW 202 4,7 C 7,3 km/h (2 Bft)
20.05.2015 06:50 6,0 C 5,9 C 90 % 1011,9 hPa 0,0 mm 1,8 km/h (1 Bft) SW 225 4,5 C 0,0 km/h (0 Bft)
20.05.2015 06:55 6,0 C 5,9 C 90 % 1012,0 hPa 0,0 mm 1,8 km/h (1 Bft) S-SW 202 4,5 C 4,4 km/h (1 Bft)
20.05.2015 07:00 5,9 C 5,8 C 90 % 1012,0 hPa 0,7 mm 1,6 km/h (1 Bft) SW 225 4,4 C 0,0 km/h (0 Bft)
20.05.2015 07:05 5,9 C 5,8 C 90 % 1012,0 hPa 0,0 mm 1,0 km/h (0 Bft) SW 225 4,4 C 0,0 km/h (0 Bft)
20.05.2015 07:10 5,8 C 5,8 C 88 % 1012,0 hPa 0,0 mm 0,5 km/h (0 Bft) S-SO 157 4,0 C 0,0 km/h (0 Bft)
20.05.2015 07:15 5,8 C 5,8 C 88 % 1011,9 hPa 0,7 mm 0,3 km/h (0 Bft) S-SW 202 4,0 C 0,0 km/h (0 Bft)
20.05.2015 07:20 5,9 C 5,9 C 88 % 1011,9 hPa 0,0 mm 0,0 km/h (0 Bft) SW 225 4,1 C 0,0 km/h (0 Bft)
20.05.2015 07:25 5,9 C 6,0 C 88 % 1011,9 hPa 0,0 mm 0,0 km/h (0 Bft) SW 225 4,1 C 0,0 km/h (0 Bft)
20.05.2015 07:30 6,0 C 6,0 C 87 % 1011,9 hPa 0,0 mm 0,0 km/h (0 Bft) W-SW 247 4,0 C 0,0 km/h (0 Bft)
20.05.2015 07:35 6,0 C 6,0 C 87 % 1012,1 hPa 0,0 mm 0,3 km/h (0 Bft) W-SW 247 4,0 C 0,0 km/h (0 Bft)
20.05.2015 07:40 6,0 C 6,1 C 87 % 1012,1 hPa 0,7 mm 0,3 km/h (0 Bft) W 270 4,0 C 0,0 km/h (0 Bft)
20.05.2015 07:45 6,0 C 6,1 C 87 % 1012,1 hPa 0,0 mm 0,0 km/h (0 Bft) W-SW 247 4,0 C 0,0 km/h (0 Bft)
20.05.2015 07:50 6,0 C 6,0 C 87 % 1012,1 hPa 0,0 mm 0,0 km/h (0 Bft) SW 225 4,0 C 0,0 km/h (0 Bft)
20.05.2015 07:55 5,9 C 5,9 C 88 % 1012,1 hPa 0,0 mm 0,0 km/h (0 Bft) S 180 4,1 C 0,0 km/h (0 Bft)
20.05.2015 08:00 5,8 C 5,8 C 88 % 1012,1 hPa 0,0 mm 0,3 km/h (0 Bft) W-SW 247 4,0 C 4,4 km/h (1 Bft)
20.05.2015 08:05 5,8 C 5,8 C 88 % 1012,1 hPa 0,7 mm 1,6 km/h (1 Bft) W 270 4,0 C 0,0 km/h (0 Bft)
20.05.2015 08:10 5,8 C 5,8 C 88 % 1012,1 hPa 0,0 mm 3,1 km/h (1 Bft) SW 225 4,0 C 7,5 km/h (2 Bft)
20.05.2015 08:15 5,8 C 5,8 C 88 % 1012,2 hPa 0,0 mm 2,6 km/h (1 Bft) SW 225 4,0 C 3,4 km/h (1 Bft)
20.05.2015 08:20 5,8 C 5,9 C 88 % 1012,2 hPa 0,0 mm 3,1 km/h (1 Bft) W-SW 247 4,0 C 3,1 km/h (1 Bft)
20.05.2015 08:25 5,9 C 6,0 C 88 % 1012,2 hPa 0,0 mm 2,8 km/h (1 Bft) S 180 4,1 C 0,0 km/h (0 Bft)
20.05.2015 08:30 5,9 C 6,0 C 88 % 1012,2 hPa 0,7 mm 2,1 km/h (1 Bft) S 180 4,1 C 0,0 km/h (0 Bft)
20.05.2015 08:35 5,8 C 5,9 C 88 % 1012,2 hPa 0,0 mm 0,8 km/h (0 Bft) S-SW 202 4,0 C 0,0 km/h (0 Bft)
20.05.2015 08:40 5,8 C 5,9 C 88 % 1012,2 hPa 0,0 mm 0,3 km/h (0 Bft) W 270 4,0 C 0,0 km/h (0 Bft)
20.05.2015 08:45 5,8 C 5,9 C 88 % 1012,2 hPa 0,0 mm 0,3 km/h (0 Bft) W-SW 247 4,0 C 3,6 km/h (1 Bft)
20.05.2015 08:50 5,7 C 5,8 C 88 % 1012,2 hPa 0,7 mm 0,3 km/h (0 Bft) S-SO 157 3,9 C 0,0 km/h (0 Bft)
20.05.2015 08:55 5,7 C 5,7 C 88 % 1012,0 hPa 0,0 mm 0,3 km/h (0 Bft) SO 135 3,9 C 0,0 km/h (0 Bft)
20.05.2015 09:00 5,7 C 5,8 C 88 % 1012,0 hPa 0,0 mm 0,0 km/h (0 Bft) N-NW 337 3,9 C 0,0 km/h (0 Bft)
20.05.2015 09:05 5,6 C 5,7 C 88 % 1012,0 hPa 0,0 mm 0,5 km/h (0 Bft) SW 225 3,8 C 4,4 km/h (1 Bft)
20.05.2015 09:10 5,6 C 5,6 C 87 % 1012,0 hPa 0,7 mm 0,5 km/h (0 Bft) W-SW 247 3,6 C 0,0 km/h (0 Bft)
20.05.2015 09:15 5,6 C 5,7 C 87 % 1012,3 hPa 0,0 mm 0,0 km/h (0 Bft) S-SW 202 3,6 C 0,0 km/h (0 Bft)
20.05.2015 09:20 5,6 C 5,6 C 87 % 1012,3 hPa 0,0 mm 1,0 km/h (0 Bft) W-SW 247 3,6 C 0,0 km/h (0 Bft)
20.05.2015 09:25 5,5 C 5,5 C 87 % 1012,3 hPa 0,0 mm 2,3 km/h (1 Bft) SW 225 3,5 C 4,7 km/h (1 Bft)
20.05.2015 09:30 5,4 C 5,4 C 87 % 1012,3 hPa 0,0 mm 1,6 km/h (1 Bft) W-SW 247 3,4 C 0,0 km/h (0 Bft)
20.05.2015 09:35 5,4 C 5,4 C 87 % 1012,5 hPa 0,7 mm 0,8 km/h (0 Bft) W 270 3,4 C 0,0 km/h (0 Bft)
20.05.2015 09:40 5,4 C 5,4 C 87 % 1012,5 hPa 0,0 mm 0,0 km/h (0 Bft) S 180 3,4 C 0,0 km/h (0 Bft)
20.05.2015 09:45 5,3 C 5,4 C 87 % 1012,5 hPa 0,0 mm 0,0 km/h (0 Bft) SW 225 3,3 C 2,8 km/h (1 Bft)
20.05.2015 09:50 5,4 C 5,4 C 87 % 1012,5 hPa 0,7 mm 0,3 km/h (0 Bft) W-NW 292 3,4 C 3,6 km/h (1 Bft)
20.05.2015 09:55 5,4 C 5,3 C 89 % 1012,8 hPa 0,0 mm 0,8 km/h (0 Bft) W 270 3,7 C 3,6 km/h (1 Bft)
20.05.2015 10:00 5,3 C 5,3 C 87 % 1012,8 hPa 0,0 mm 1,0 km/h (0 Bft) S-SW 202 3,3 C 0,0 km/h (0 Bft)
20.05.2015 10:05 5,2 C 5,2 C 87 % 1012,8 hPa 0,0 mm 1,3 km/h (1 Bft) W-SW 247 3,2 C 2,8 km/h (1 Bft)
20.05.2015 10:10 5,1 C 5,0 C 87 % 1012,8 hPa 0,0 mm 0,8 km/h (0 Bft) W-NW 292 3,1 C 0,0 km/h (0 Bft)
20.05.2015 10:15 5,1 C 5,1 C 87 % 1013,2 hPa 0,7 mm 0,5 km/h (0 Bft) SW 225 3,1 C 0,0 km/h (0 Bft)
20.05.2015 10:20 5,1 C 5,0 C 87 % 1013,2 hPa 0,0 mm 0,0 km/h (0 Bft) SW 225 3,1 C 0,0 km/h (0 Bft)
20.05.2015 10:25 5,0 C 5,0 C 87 % 1013,2 hPa 0,0 mm 0,0 km/h (0 Bft) S-SW 202 3,0 C 0,0 km/h (0 Bft)
20.05.2015 10:30 5,0 C 5,0 C 87 % 1013,2 hPa 0,7 mm 0,5 km/h (0 Bft) S 180 3,0 C 5,7 km/h (1 Bft)
20.05.2015 10:35 4,9 C 5,0 C 88 % 1013,4 hPa 0,0 mm 0,5 km/h (0 Bft) W 270 3,1 C 0,0 km/h (0 Bft)
20.05.2015 10:40 4,9 C 4,9 C 87 % 1013,4 hPa 0,0 mm 1,3 km/h (1 Bft) S-SW 202 2,9 C 9,1 km/h (2 Bft)
20.05.2015 10:45 4,8 C 4,8 C 87 % 1013,4 hPa 0,0 mm 1,3 km/h (1 Bft) SW 225 2,8 C 0,0 km/h (0 Bft)
20.05.2015 10:50 4,9 C 4,8 C 87 % 1013,4 hPa 0,7 mm 0,8 km/h (0 Bft) W-SW 247 2,9 C 0,0 km/h (0 Bft)
20.05.2015 10:55 4,8 C 4,9 C 87 % 1013,8 hPa 0,0 mm 0,0 km/h (0 Bft) W 270 2,8 C 0,0 km/h (0 Bft)
20.05.2015 11:00 4,8 C 4,8 C 87 % 1013,8 hPa 0,7 mm 0,0 km/h (0 Bft) SW 225 2,8 C 0,0 km/h (0 Bft)
20.05.2015 11:05 4,8 C 4,8 C 87 % 1013,8 hPa 0,0 mm 0,0 km/h (0 Bft) S-SW 202 2,8 C 0,0 km/h (0 Bft)
20.05.2015 11:10 4,7 C 4,8 C 87 % 1013,8 hPa 0,7 mm 0,0 km/h (0 Bft) SW 225 2,7 C 0,0 km/h (0 Bft)
20.05.2015 11:15 4,6 C 4,6 C 87 % 1013,8 hPa 0,0 mm 1,0 km/h (0 Bft) W-SW 247 2,6 C 2,8 km/h (1 Bft)
20.05.2015 11:20 4,6 C 4,6 C 87 % 1013,8 hPa 0,7 mm 1,0 km/h (0 Bft) N-NO 22 2,6 C 2,6 km/h (1 Bft)
20.05.2015 11:25 4,5 C 4,4 C 89 % 1013,8 hPa 0,0 mm 1,3 km/h (1 Bft) O-NO 67 2,8 C 4,7 km/h (1 Bft)
20.05.2015 11:30 4,4 C 4,2 C 88 % 1013,8 hPa 0,7 mm 3,1 km/h (1 Bft) O-NO 67 2,6 C 6,7 km/h (2 Bft)
20.05.2015 11:35 4,3 C 4,2 C 87 % 1013,9 hPa 0,0 mm 2,8 km/h (1 Bft) NW 315 2,3 C 4,4 km/h (1 Bft)
20.05.2015 11:40 4,3 C 4,3 C 87 % 1013,9 hPa 0,7 mm 2,6 km/h (1 Bft) W 270 2,3 C 3,1 km/h (1 Bft)
20.05.2015 11:45 4,3 C 4,3 C 87 % 1013,9 hPa 0,0 mm 2,1 km/h (1 Bft) W-SW 247 2,3 C 0,0 km/h (0 Bft)
20.05.2015 11:50 4,3 C 4,2 C 87 % 1013,9 hPa 0,0 mm 1,3 km/h (1 Bft) W-SW 247 2,3 C 3,9 km/h (1 Bft)
20.05.2015 11:55 4,2 C 4,1 C 88 % 1014,2 hPa 0,0 mm 0,8 km/h (0 Bft) W-SW 247 2,4 C 0,0 km/h (0 Bft)
20.05.2015 12:00 4,0 C 3,9 C 87 % 1014,2 hPa 0,7 mm 1,0 km/h (0 Bft) SW 225 2,0 C 0,0 km/h (0 Bft)
20.05.2015 12:05 4,0 C 3,9 C 87 % 1014,2 hPa 0,0 mm 0,8 km/h (0 Bft) S 180 2,0 C 4,9 km/h (1 Bft)
20.05.2015 12:10 3,9 C 3,8 C 87 % 1014,2 hPa 0,0 mm 1,3 km/h (1 Bft) SW 225 1,9 C 0,0 km/h (0 Bft)
20.05.2015 12:15 3,8 C 3,8 C 87 % 1014,1 hPa 0,0 mm 1,6 km/h (1 Bft) W-NW 292 1,8 C 2,6 km/h (1 Bft)
20.05.2015 12:20 3,8 C 3,8 C 87 % 1014,1 hPa 0,7 mm 0,5 km/h (0 Bft) W-NW 292 1,8 C 0,0 km/h (0 Bft)
20.05.2015 12:25 3,9 C 3,9 C 87 % 1014,1 hPa 0,0 mm 0,3 km/h (0 Bft) W-SW 247 1,9 C 0,0 km/h (0 Bft)
20.05.2015 12:30 3,8 C 3,9 C 87 % 1014,1 hPa 0,0 mm 0,3 km/h (0 Bft) W-SW 247 1,8 C 0,0 km/h (0 Bft)
20.05.2015 12:35 3,9 C 4,0 C 87 % 1014,1 hPa 0,0 mm 0,3 km/h (0 Bft) SW 225 1,9 C 2,6 km/h (1 Bft)
20.05.2015 12:40 3,9 C 4,1 C 87 % 1014,1 hPa 0,0 mm 0,3 km/h (0 Bft) SW 225 1,9 C 0,0 km/h (0 Bft)
20.05.2015 12:45 3,9 C 4,1 C 87 % 1014,1 hPa 0,7 mm 0,5 km/h (0 Bft) NW 315 1,9 C 2,6 km/h (1 Bft)
20.05.2015 12:50 3,8 C 4,1 C 87 % 1014,1 hPa 0,0 mm 1,0 km/h (0 Bft) O-SO 112 1,8 C 0,0 km/h (0 Bft)
20.05.2015 12:55 3,8 C 4,1 C 87 % 1014,2 hPa 0,0 mm 0,8 km/h (0 Bft) O-NO 67 1,8 C 0,0 km/h (0 Bft)
20.05.2015 13:00 3,9 C 4,1 C 87 % 1014,2 hPa 0,0 mm 0,5 km/h (0 Bft) N-NO 22 1,9 C 0,0 km/h (0 Bft)
20.05.2015 13:05 3,9 C 4,3 C 87 % 1014,2 hPa 0,0 mm 0,5 km/h (0 Bft) N-NW 337 1,9 C 2,8 km/h (1 Bft)
20.05.2015 13:10 4,0 C 4,5 C 86 % 1014,2 hPa 0,7 mm 0,5 km/h (0 Bft) N-NO 22 1,9 C 0,0 km/h (0 Bft)
20.05.2015 13:15 4,1 C 4,4 C 86 % 1014,2 hPa 0,0 mm 0,5 km/h (0 Bft) O-NO 67 2,0 C 0,0 km/h (0 Bft)
20.05.2015 13:20 4,1 C 4,5 C 86 % 1014,2 hPa 0,0 mm 0,0 km/h (0 Bft) N-NO 22 2,0 C 0,0 km/h (0 Bft)
20.05.2015 13:25 4,2 C 4,7 C 86 % 1014,2 hPa 0,0 mm 0,3 km/h (0 Bft) W 270 2,1 C 4,1 km/h (1 Bft)
20.05.2015 13:30 4,2 C 4,7 C 86 % 1014,2 hPa 0,0 mm 0,3 km/h (0 Bft) SO 135 2,1 C 0,0 km/h (0 Bft)
20.05.2015 13:35 4,2 C 4,7 C 86 % 1014,5 hPa 0,0 mm 0,3 km/h (0 Bft) O-NO 67 2,1 C 0,0 km/h (0 Bft)
20.05.2015 13:40 4,2 C 4,8 C 86 % 1014,5 hPa 0,0 mm 0,3 km/h (0 Bft) N-NW 337 2,1 C 0,0 km/h (0 Bft)
20.05.2015 13:45 4,3 C 4,9 C 86 % 1014,5 hPa 0,7 mm 0,3 km/h (0 Bft) NW 315 2,2 C 0,0 km/h (0 Bft)
20.05.2015 13:50 4,4 C 5,0 C 86 % 1014,5 hPa 0,0 mm 0,5 km/h (0 Bft) NO 45 2,3 C 0,0 km/h (0 Bft)
20.05.2015 13:55 4,3 C 5,0 C 86 % 1014,5 hPa 0,0 mm 0,3 km/h (0 Bft) N-NW 337 2,2 C 0,0 km/h (0 Bft)
20.05.2015 14:00 4,4 C 5,0 C 86 % 1014,5 hPa 0,0 mm 0,8 km/h (0 Bft) SW 225 2,3 C 4,9 km/h (1 Bft)
20.05.2015 14:05 4,4 C 5,1 C 86 % 1014,5 hPa 0,0 mm 1,3 km/h (1 Bft) S-SW 202 2,3 C 0,0 km/h (0 Bft)
20.05.2015 14:10 4,6 C 5,2 C 86 % 1014,5 hPa 0,0 mm 1,0 km/h (0 Bft) S 180 2,5 C 0,0 km/h (0 Bft)
20.05.2015 14:15 4,7 C 5,2 C 86 % 1014,4 hPa 0,0 mm 0,3 km/h (0 Bft) NW 315 2,6 C 0,0 km/h (0 Bft)
20.05.2015 14:20 4,8 C 5,4 C 87 % 1014,4 hPa 0,0 mm 0,3 km/h (0 Bft) N-NW 337 2,8 C 0,0 km/h (0 Bft)
20.05.2015 14:25 4,9 C 5,4 C 87 % 1014,4 hPa 0,0 mm 0,3 km/h (0 Bft) N 360 2,9 C 0,0 km/h (0 Bft)
20.05.2015 14:30 5,0 C 5,4 C 86 % 1014,4 hPa 0,0 mm 0,5 km/h (0 Bft) NO 45 2,9 C 3,1 km/h (1 Bft)
20.05.2015 14:35 5,0 C 5,5 C 86 % 1014,6 hPa 0,7 mm 0,5 km/h (0 Bft) O-SO 112 2,9 C 0,0 km/h (0 Bft)
20.05.2015 14:40 5,0 C 5,6 C 86 % 1014,6 hPa 0,0 mm 0,3 km/h (0 Bft) W 270 2,9 C 0,0 km/h (0 Bft)
20.05.2015 14:45 5,0 C 5,6 C 86 % 1014,6 hPa 0,0 mm 0,3 km/h (0 Bft) N-NW 337 2,9 C 0,0 km/h (0 Bft)
20.05.2015 14:50 5,1 C 5,7 C 86 % 1014,6 hPa 0,0 mm 0,0 km/h (0 Bft) W-NW 292 3,0 C 0,0 km/h (0 Bft)
20.05.2015 14:55 5,0 C 5,8 C 86 % 1014,5 hPa 0,0 mm 0,0 km/h (0 Bft) W 270 2,9 C 0,0 km/h (0 Bft)
20.05.2015 15:00 5,0 C 5,8 C 86 % 1014,5 hPa 0,0 mm 0,0 km/h (0 Bft) W-SW 247 2,9 C 0,0 km/h (0 Bft)
20.05.2015 15:05 5,1 C 5,8 C 86 % 1014,5 hPa 0,0 mm 0,0 km/h (0 Bft) N-NO 22 3,0 C 0,0 km/h (0 Bft)
20.05.2015 15:10 5,2 C 5,9 C 86 % 1014,5 hPa 0,0 mm 0,0 km/h (0 Bft) O-SO 112 3,1 C 0,0 km/h (0 Bft)
20.05.2015 15:15 5,3 C 6,0 C 86 % 1014,5 hPa 0,0 mm 0,0 km/h (0 Bft) NW 315 3,2 C 0,0 km/h (0 Bft)
20.05.2015 15:20 5,4 C 6,1 C 86 % 1014,5 hPa 0,0 mm 0,3 km/h (0 Bft) N-NW 337 3,3 C 0,0 km/h (0 Bft)
20.05.2015 15:25 5,4 C 6,0 C 86 % 1014,5 hPa 0,0 mm 1,3 km/h (1 Bft) N-NO 22 3,3 C 3,1 km/h (1 Bft)
20.05.2015 15:30 5,6 C 6,2 C 86 % 1014,5 hPa 0,0 mm 1,3 km/h (1 Bft) NW 315 3,4 C 0,0 km/h (0 Bft)
20.05.2015 15:35 5,7 C 6,2 C 86 % 1014,4 hPa 0,0 mm 0,5 km/h (0 Bft) N-NW 337 3,5 C 0,0 km/h (0 Bft)
20.05.2015 15:40 5,7 C 6,2 C 86 % 1014,4 hPa 0,0 mm 0,3 km/h (0 Bft) O-SO 112 3,5 C 0,0 km/h (0 Bft)
20.05.2015 15:45 5,6 C 6,2 C 86 % 1014,4 hPa 0,0 mm 0,5 km/h (0 Bft) O-SO 112 3,4 C 0,0 km/h (0 Bft)
20.05.2015 15:50 5,6 C 6,2 C 86 % 1014,4 hPa 0,7 mm 0,3 km/h (0 Bft) W-SW 247 3,4 C 0,0 km/h (0 Bft)
20.05.2015 15:55 5,8 C 6,4 C 86 % 1014,4 hPa 0,0 mm 0,3 km/h (0 Bft) S 180 3,6 C 0,0 km/h (0 Bft)
20.05.2015 16:00 5,9 C 6,6 C 86 % 1014,4 hPa 0,0 mm 0,0 km/h (0 Bft) N-NO 22 3,7 C 0,0 km/h (0 Bft)
20.05.2015 16:05 5,9 C 6,6 C 86 % 1014,4 hPa 0,0 mm 0,0 km/h (0 Bft) S-SO 157 3,7 C 0,0 km/h (0 Bft)
20.05.2015 16:10 6,0 C 6,7 C 86 % 1014,4 hPa 0,0 mm 0,0 km/h (0 Bft) N-NO 22 3,8 C 0,0 km/h (0 Bft)
20.05.2015 16:15 6,1 C 6,8 C 86 % 1014,5 hPa 0,0 mm 0,0 km/h (0 Bft) O-NO 67 3,9 C 0,0 km/h (0 Bft)
20.05.2015 16:20 6,1 C 7,0 C 85 % 1014,5 hPa 0,0 mm 0,5 km/h (0 Bft) W-SW 247 3,8 C 0,0 km/h (0 Bft)
20.05.2015 16:25 6,3 C 7,2 C 86 % 1014,5 hPa 0,0 mm 0,8 km/h (0 Bft) SW 225 4,1 C 0,0 km/h (0 Bft)
20.05.2015 16:30 6,3 C 7,1 C 85 % 1014,5 hPa 0,0 mm 0,5 km/h (0 Bft) O-SO 112 4,0 C 0,0 km/h (0 Bft)
20.05.2015 16:35 6,5 C 7,2 C 85 % 1014,8 hPa 0,0 mm 0,3 km/h (0 Bft) S 180 4,2 C 0,0 km/h (0 Bft)
20.05.2015 16:40 6,3 C 6,9 C 85 % 1014,8 hPa 0,0 mm 0,5 km/h (0 Bft) S-SO 157 4,0 C 0,0 km/h (0 Bft)
20.05.2015 16:45 6,3 C 6,7 C 85 % 1014,8 hPa 0,0 mm 0,5 km/h (0 Bft) O-NO 67 4,0 C 0,0 km/h (0 Bft)
20.05.2015 16:50 6,2 C 6,7 C 85 % 1014,8 hPa 0,0 mm 0,3 km/h (0 Bft) O-SO 112 3,9 C 0,0 km/h (0 Bft)
20.05.2015 16:55 6,2 C 6,7 C 85 % 1014,5 hPa 0,0 mm 0,0 km/h (0 Bft) W 270 3,9 C 0,0 km/h (0 Bft)
20.05.2015 17:00 6,3 C 6,7 C 85 % 1014,5 hPa 0,0 mm 0,0 km/h (0 Bft) N-NW 337 4,0 C 0,0 km/h (0 Bft)
20.05.2015 17:05 6,3 C 6,7 C 85 % 1014,5 hPa 0,0 mm 0,0 km/h (0 Bft) NW 315 4,0 C 0,0 km/h (0 Bft)
20.05.2015 17:10 6,2 C 6,4 C 85 % 1014,5 hPa 0,0 mm 0,0 km/h (0 Bft) SO 135 3,9 C 0,0 km/h (0 Bft)
20.05.2015 17:15 6,1 C 6,2 C 85 % 1014,7 hPa 0,0 mm 0,5 km/h (0 Bft) O-NO 67 3,8 C 0,0 km/h (0 Bft)
20.05.2015 17:20 6,0 C 6,0 C 85 % 1014,7 hPa 0,0 mm 0,8 km/h (0 Bft) SO 135 3,7 C 0,0 km/h (0 Bft)
20.05.2015 17:25 6,0 C 6,0 C 85 % 1014,7 hPa 0,0 mm 0,3 km/h (0 Bft) O-NO 67 3,7 C 0,0 km/h (0 Bft)
20.05.2015 17:30 5,9 C 5,9 C 86 % 1014,7 hPa 0,0 mm 0,0 km/h (0 Bft) O-SO 112 3,7 C 0,0 km/h (0 Bft)
20.05.2015 17:35 5,8 C 5,8 C 86 % 1014,9 hPa 0,0 mm 0,0 km/h (0 Bft) SW 225 3,6 C 0,0 km/h (0 Bft)
20.05.2015 17:40 5,7 C 5,8 C 86 % 1014,9 hPa 0,0 mm 0,3 km/h (0 Bft) N-NW 337 3,5 C 0,0 km/h (0 Bft)
20.05.2015 17:45 5,6 C 5,8 C 86 % 1014,9 hPa 0,0 mm 0,3 km/h (0 Bft) N-NW 337 3,4 C 0,0 km/h (0 Bft)
20.05.2015 17:50 5,6 C 5,8 C 86 % 1014,9 hPa 0,7 mm 0,0 km/h (0 Bft) NW 315 3,4 C 3,1 km/h (1 Bft)
20.05.2015 17:55 5,6 C 5,8 C 86 % 1015,1 hPa 0,0 mm 0,0 km/h (0 Bft) NO 45 3,4 C 0,0 km/h (0 Bft)
20.05.2015 18:00 5,6 C 5,6 C 86 % 1015,1 hPa 0,0 mm 0,3 km/h (0 Bft) O-NO 67 3,4 C 0,0 km/h (0 Bft)
20.05.2015 18:05 5,6 C 5,7 C 86 % 1015,1 hPa 0,0 mm 0,3 km/h (0 Bft) N-NW 337 3,4 C 0,0 km/h (0 Bft)
20.05.2015 18:10 5,6 C 5,9 C 86 % 1015,1 hPa 0,0 mm 0,0 km/h (0 Bft) N-NO 22 3,4 C 0,0 km/h (0 Bft)
20.05.2015 18:15 5,7 C 5,9 C 86 % 1015,1 hPa 0,0 mm 0,0 km/h (0 Bft) O-SO 112 3,5 C 0,0 km/h (0 Bft)
20.05.2015 18:20 5,7 C 5,9 C 86 % 1015,1 hPa 0,0 mm 0,0 km/h (0 Bft) NO 45 3,5 C 0,0 km/h (0 Bft)
20.05.2015 18:25 5,7 C 5,9 C 86 % 1015,1 hPa 0,0 mm 0,0 km/h (0 Bft) O 90 3,5 C 0,0 km/h (0 Bft)
20.05.2015 18:30 5,7 C 5,8 C 86 % 1015,1 hPa 0,7 mm 0,3 km/h (0 Bft) NO 45 3,5 C 0,0 km/h (0 Bft)
20.05.2015 18:35 5,8 C 5,9 C 86 % 1015,1 hPa 0,0 mm 0,0 km/h (0 Bft) N-NW 337 3,6 C 0,0 km/h (0 Bft)
20.05.2015 18:40 5,9 C 6,0 C 86 % 1015,1 hPa 0,0 mm 0,0 km/h (0 Bft) W-NW 292 3,7 C 0,0 km/h (0 Bft)
20.05.2015 18:45 5,9 C 6,1 C 86 % 1015,1 hPa 0,0 mm 0,0 km/h (0 Bft) SW 225 3,7 C 0,0 km/h (0 Bft)
20.05.2015 18:50 5,9 C 6,1 C 86 % 1015,1 hPa 0,0 mm 0,0 km/h (0 Bft) W-SW 247 3,7 C 0,0 km/h (0 Bft)
20.05.2015 18:55 5,9 C 6,2 C 86 % 1015,2 hPa 0,0 mm 0,0 km/h (0 Bft) S-SW 202 3,7 C 0,0 km/h (0 Bft)
20.05.2015 19:00 6,0 C 6,2 C 85 % 1015,2 hPa 0,0 mm 0,0 km/h (0 Bft) N 360 3,7 C 0,0 km/h (0 Bft)
20.05.2015 19:05 6,0 C 6,3 C 85 % 1015,2 hPa 0,0 mm 0,0 km/h (0 Bft) W-SW 247 3,7 C 0,0 km/h (0 Bft)
20.05.2015 19:10 6,0 C 6,2 C 85 % 1015,2 hPa 0,7 mm 0,0 km/h (0 Bft) W 270 3,7 C 0,0 km/h (0 Bft)
20.05.2015 19:15 5,9 C 6,2 C 86 % 1015,2 hPa 0,0 mm 0,0 km/h (0 Bft) S 180 3,7 C 0,0 km/h (0 Bft)
20.05.2015 19:20 5,8 C 6,1 C 86 % 1015,2 hPa 0,0 mm 0,0 km/h (0 Bft) S 180 3,6 C 0,0 km/h (0 Bft)
20.05.2015 19:25 5,8 C 6,1 C 86 % 1015,2 hPa 0,0 mm 0,0 km/h (0 Bft) W-NW 292 3,6 C 0,0 km/h (0 Bft)
20.05.2015 19:30 5,8 C 5,9 C 86 % 1015,2 hPa 0,0 mm 0,0 km/h (0 Bft) SW 225 3,6 C 0,0 km/h (0 Bft)
20.05.2015 19:35 5,7 C 5,8 C 86 % 1015,1 hPa 0,0 mm 0,0 km/h (0 Bft) NW 315 3,5 C 0,0 km/h (0 Bft)
20.05.2015 19:40 5,7 C 5,9 C 86 % 1015,1 hPa 0,0 mm 0,0 km/h (0 Bft) NW 315 3,5 C 0,0 km/h (0 Bft)
20.05.2015 19:45 5,6 C 5,7 C 86 % 1015,1 hPa 0,0 mm 0,0 km/h (0 Bft) S 180 3,4 C 0,0 km/h (0 Bft)
20.05.2015 19:50 5,5 C 5,6 C 86 % 1015,1 hPa 0,0 mm 0,0 km/h (0 Bft) N-NO 22 3,3 C 0,0 km/h (0 Bft)
20.05.2015 19:55 5,5 C 5,5 C 86 % 1015,1 hPa 0,0 mm 0,0 km/h (0 Bft) O-SO 112 3,3 C 0,0 km/h (0 Bft)
20.05.2015 20:00 5,4 C 5,4 C 86 % 1015,1 hPa 0,0 mm 0,0 km/h (0 Bft) O-SO 112 3,3 C 0,0 km/h (0 Bft)
20.05.2015 20:05 5,4 C 5,3 C 87 % 1015,1 hPa 0,0 mm 0,0 km/h (0 Bft) O-SO 112 3,4 C 0,0 km/h (0 Bft)
20.05.2015 20:10 5,3 C 5,3 C 86 % 1015,1 hPa 0,0 mm 0,0 km/h (0 Bft) O-SO 112 3,2 C 0,0 km/h (0 Bft)
20.05.2015 20:15 5,3 C 5,2 C 86 % 1015,2 hPa 0,0 mm 0,0 km/h (0 Bft) SO 135 3,2 C 0,0 km/h (0 Bft)
20.05.2015 20:20 5,3 C 5,2 C 86 % 1015,2 hPa 0,0 mm 0,0 km/h (0 Bft) O-NO 67 3,2 C 0,0 km/h (0 Bft)
20.05.2015 20:25 5,2 C 5,2 C 86 % 1015,2 hPa 0,0 mm 0,0 km/h (0 Bft) O-NO 67 3,1 C 0,0 km/h (0 Bft)
20.05.2015 20:30 5,2 C 5,1 C 87 % 1015,2 hPa 0,0 mm 0,0 km/h (0 Bft) O-NO 67 3,2 C 0,0 km/h (0 Bft)
20.05.2015 20:35 5,1 C 5,0 C 86 % 1015,4 hPa 0,0 mm 0,0 km/h (0 Bft) SO 135 3,0 C 0,0 km/h (0 Bft)
20.05.2015 20:40 5,1 C 4,9 C 88 % 1015,4 hPa 0,0 mm 0,0 km/h (0 Bft) O-SO 112 3,3 C 0,0 km/h (0 Bft)
20.05.2015 20:45 5,0 C 4,9 C 86 % 1015,4 hPa 0,0 mm 0,0 km/h (0 Bft) SO 135 2,9 C 0,0 km/h (0 Bft)
20.05.2015 20:50 5,0 C 4,8 C 88 % 1015,4 hPa 0,0 mm 0,0 km/h (0 Bft) SO 135 3,2 C 0,0 km/h (0 Bft)
20.05.2015 20:55 4,9 C 4,8 C 87 % 1015,7 hPa 0,0 mm 0,0 km/h (0 Bft) SO 135 2,9 C 0,0 km/h (0 Bft)
20.05.2015 21:00 4,9 C 4,8 C 87 % 1015,7 hPa 0,0 mm 0,0 km/h (0 Bft) SO 135 2,9 C 0,0 km/h (0 Bft)
20.05.2015 21:05 4,9 C 4,8 C 87 % 1015,7 hPa 0,0 mm 0,0 km/h (0 Bft) W-SW 247 2,9 C 0,0 km/h (0 Bft)
20.05.2015 21:10 4,9 C 4,7 C 88 % 1015,7 hPa 0,0 mm 0,3 km/h (0 Bft) S 180 3,1 C 0,0 km/h (0 Bft)
20.05.2015 21:15 4,8 C 4,7 C 87 % 1015,6 hPa 0,0 mm 0,3 km/h (0 Bft) S 180 2,8 C 0,0 km/h (0 Bft)
20.05.2015 21:20 4,8 C 4,7 C 87 % 1015,6 hPa 0,0 mm 0,0 km/h (0 Bft) S 180 2,8 C 0,0 km/h (0 Bft)
20.05.2015 21:25 4,8 C 4,6 C 88 % 1015,6 hPa 0,0 mm 0,0 km/h (0 Bft) S 180 3,0 C 0,0 km/h (0 Bft)
20.05.2015 21:30 4,7 C 4,5 C 87 % 1015,6 hPa 0,0 mm 0,0 km/h (0 Bft) S 180 2,7 C 0,0 km/h (0 Bft)
20.05.2015 21:35 4,7 C 4,5 C 87 % 1015,9 hPa 0,0 mm 0,0 km/h (0 Bft) S 180 2,7 C 0,0 km/h (0 Bft)
20.05.2015 21:40 4,7 C 4,5 C 87 % 1015,9 hPa 0,0 mm 0,0 km/h (0 Bft) S 180 2,7 C 0,0 km/h (0 Bft)
20.05.2015 21:45 4,7 C 4,5 C 87 % 1015,9 hPa 0,0 mm 0,0 km/h (0 Bft) W-SW 247 2,7 C 0,0 km/h (0 Bft)
20.05.2015 21:50 4,7 C 4,5 C 89 % 1015,9 hPa 0,0 mm 0,0 km/h (0 Bft) S 180 3,0 C 0,0 km/h (0 Bft)
20.05.2015 21:55 4,7 C 4,5 C 89 % 1016,4 hPa 0,0 mm 0,0 km/h (0 Bft) S 180 3,0 C 0,0 km/h (0 Bft)
20.05.2015 22:00 4,7 C 4,5 C 89 % 1016,4 hPa 0,0 mm 0,0 km/h (0 Bft) S 180 3,0 C 0,0 km/h (0 Bft)
20.05.2015 22:05 4,7 C 4,5 C 87 % 1016,4 hPa 0,0 mm 0,5 km/h (0 Bft) W-NW 292 2,7 C 3,9 km/h (1 Bft)
20.05.2015 22:10 4,8 C 4,6 C 89 % 1016,4 hPa 0,0 mm 1,0 km/h (0 Bft) W-NW 292 3,1 C 0,0 km/h (0 Bft)
20.05.2015 22:15 4,8 C 4,6 C 89 % 1016,4 hPa 0,0 mm 0,8 km/h (0 Bft) W-SW 247 3,1 C 0,0 km/h (0 Bft)
20.05.2015 22:20 4,8 C 4,6 C 89 % 1016,4 hPa 0,0 mm 0,0 km/h (0 Bft) S-SW 202 3,1 C 0,0 km/h (0 Bft)
20.05.2015 22:25 4,8 C 4,6 C 89 % 1016,4 hPa 0,0 mm 0,5 km/h (0 Bft) SW 225 3,1 C 5,2 km/h (1 Bft)
20.05.2015 22:30 4,8 C 4,6 C 89 % 1016,4 hPa 0,0 mm 1,3 km/h (1 Bft) S 180 3,1 C 0,0 km/h (0 Bft)
20.05.2015 22:35 4,8 C 4,6 C 89 % 1016,5 hPa 0,0 mm 1,3 km/h (1 Bft) SW 225 3,1 C 0,0 km/h (0 Bft)
20.05.2015 22:40 4,8 C 4,7 C 88 % 1016,5 hPa 0,0 mm 1,8 km/h (1 Bft) W-SW 247 3,0 C 0,0 km/h (0 Bft)
20.05.2015 22:45 4,9 C 4,7 C 89 % 1016,5 hPa 0,0 mm 2,1 km/h (1 Bft) SW 225 3,2 C 0,0 km/h (0 Bft)
20.05.2015 22:50 4,9 C 4,7 C 90 % 1016,5 hPa 0,0 mm 0,8 km/h (0 Bft) W 270 3,4 C 0,0 km/h (0 Bft)
20.05.2015 22:55 4,9 C 4,7 C 90 % 1016,5 hPa 0,0 mm 1,0 km/h (0 Bft) SW 225 3,4 C 6,2 km/h (2 Bft)
20.05.2015 23:00 4,9 C 4,8 C 90 % 1016,5 hPa 0,0 mm 4,7 km/h (1 Bft) W-SW 247 3,4 C 4,7 km/h (1 Bft)
20.05.2015 23:05 5,0 C 4,8 C 89 % 1016,5 hPa 0,0 mm 4,7 km/h (1 Bft) SW 225 3,3 C 11,1 km/h (2 Bft)
20.05.2015 23:10 4,9 C 4,7 C 90 % 1016,5 hPa 0,0 mm 3,6 km/h (1 Bft) W-NW 292 3,4 C 7,3 km/h (2 Bft)
20.05.2015 23:15 4,9 C 4,7 C 90 % 1016,6 hPa 0,0 mm 5,2 km/h (1 Bft) N-NW 337 3,4 C 9,3 km/h (2 Bft)
20.05.2015 23:20 4,9 C 4,7 C 90 % 1016,6 hPa 0,0 mm 4,7 km/h (1 Bft) S 180 3,4 C 4,1 km/h (1 Bft)
20.05.2015 23:25 4,9 C 4,7 C 90 % 1016,6 hPa 0,0 mm 4,1 km/h (1 Bft) SW 225 3,4 C 14,5 km/h (3 Bft)
20.05.2015 23:30 4,8 C 4,6 C 90 % 1016,6 hPa 0,0 mm 4,1 km/h (1 Bft) SW 225 3,3 C 9,3 km/h (2 Bft)
20.05.2015 23:35 4,8 C 4,6 C 90 % 1016,9 hPa 0,0 mm 4,4 km/h (1 Bft) O 90 3,3 C 8,8 km/h (2 Bft)
20.05.2015 23:40 4,8 C 4,6 C 90 % 1016,9 hPa 0,7 mm 3,6 km/h (1 Bft) W 270 3,3 C 0,0 km/h (0 Bft)
20.05.2015 23:45 4,8 C 4,6 C 90 % 1016,9 hPa 0,0 mm 2,3 km/h (1 Bft) SW 225 3,3 C 0,0 km/h (0 Bft)
20.05.2015 23:50 4,8 C 4,6 C 90 % 1016,9 hPa 0,0 mm 2,3 km/h (1 Bft) W-SW 247 3,3 C 5,7 km/h (1 Bft)
20.05.2015 23:55 4,8 C 4,6 C 90 % 1016,8 hPa 0,0 mm 3,6 km/h (1 Bft) S-SW 202 3,3 C 0,0 km/h (0 Bft)
_ Min-Zeit 12:55 12:20 19:10 05:30 - 22:20 - - 12:55 23:55
Minimum _ 3,8 C 3,8 C 85 % 1011,0 hPa - 0,0 km/h (0 Bft) - - 1,8 C 0,0 km/h (0 Bft)
_ Max-Zeit 00:00 00:05 23:55 23:50 23:40 23:15 - - 00:00 23:25
Maximum _ 8,2 C 8,0 C 90 % 1016,9 hPa 0,7 mm 5,2 km/h
N-NW (1 Bft)
- - 6,5 C 14,5 km/h
SW (3 Bft)
Durchschnitt _ 5,7 C 5,8 C 88 % 1013,6 hPa #33,7 mm 0,8 km/h (0 Bft) SW - 3,9 C 1,3 km/h (1 Bft)